METEOR 2-11 DEB, 60005

Orbit data source: Space-Track

METEOR 2-11 DEB, 60005 is space debris in LEO originally from a launch on Thu, 05 Jul 1984 UTC launched from the Plesetsk Missile And Space Complex (PKMTR). Debris objects in space refer to the collection of defunct objects orbiting the Earth. Examples of debris include non-operational satellites, rocket bodies, and fragments generated from explosions, collisions, or faulty payload assembly.

Loading next visibility...
Identifier
60005, 1984-072AA
Orbit
LEO
Country
Flag of CISCIS
Related business
Manufacturer
Unknown
Mission
Spacecraft
Bus & Motor
Unknown
Mass
Unknown
Launch date (UTC)
1984-07-05 (42 years ago)
Launch vehicle
Unknown
Launch site
Plesetsk Missile And Space Complex (PKMTR)
Object type
Payload
Rocket body
Debris
Shape & HBR
Unknown shape, 0.1 m
Radar Cross Section
Small (<0.1 m²)

Expand to show TLE details & history
Last TLE update: 3 weeks ago

TLE from 3 weeks ago
0 METEOR 2-11 DEB
1 60005U 84072AA  26044.90015542  .00002562  00000-0  17125-2 0  9997
2 60005  82.5188 102.5188 0021143 311.9501  47.9865 14.00544773419661
Epoch: 2026-02-13T21:36Z
TLE epoch observation values (Epoch: 2026-02-13T21:36:13.428Z)
Latitude
-0.00008°
Longitude
-5.46809°
Altitude
884.561 km
Speed
7.415 km/s
True Right ascension
06h 50m 04s
True Declination
0° 00' 00"
Sunlit
Object was in full shadow at epoch
Visualization orbit readout
Latitude
Unknown
Longitude
Unknown
Altitude
Unknown
Speed
Unknown
Apparent Right ascension
Unknown
Apparent Declination
Unknown
Sunlit
N/A
Visualization observer readout
Local Sidereal Time
16:08:25
Azimuth
Unknown
Elevation
Unknown
Doppler factor
Unknown
Orbital elements
Apogee altitude
904.405 km
Perigee altitude
873.675 km
Semi-major axis
7,267.177 km
Eccentricity
0.00211
Inclination
82.5188°
RAAN
102.5188°
Arg. of periapsis
311.9501°
True anomaly
48.16683°
Mean anomaly
47.9865°
Eccentric anomaly
48.07663°
Mean motion
3.50344 °/min
Orbital period
102.76 mins
BSTAR
0.0017125
Loading maneuver chart data...
Computing Atmospheric mass density...
Loading historical data...
Loading historical data...
Loading historical data...
Loading historical data...
Loading historical data...
Loading historical data...
Loading historical data...

Documentation

Showing up to 5 results
|